Location: Campillo
(40.8621°N, 4.2488°W)
Time: 06:27:38
(UTC+00:00)

USA 306 - Pass Details

Date: 26 September 2021
Orbit: 564 x 573 km, 54.0° (Epoch: 24 September)

Event Time Altitude Azimuth Distance (km) Brightness Sun altitude
Rises 20:56:05 0° 313° (NW) 2,763 7.5 -31.6°
Reaches altitude 10° 20:58:23 10° 318° (NW) 1,865 6.3 -32.0°
Enters shadow 20:59:55 21° 326° (NW) 1,298 5.2 -32.2°
